Concordia, KS

3:03 PM CST on December 06, 2019 (GMT -0600)
Blosser Municipal

Weather History for KCNK - October, 2019

Change the Weather History Date:

Thursday, October 24, 2019

  Actual Average Record
Temperature  
Mean Temperature 43 °F 52 °F  
Max Temperature 50 °F 64 °F 89 °F (1939)
Min Temperature 36 °F 41 °F 22 °F (1887)
Degree Days  
Heating Degree Days 22 13  
Month to date heating degree days 220 218  
Since 1 July heating degree days 223 291  
Cooling Degree Days 0 0  
Month to date cooling degree days 9 20  
Year to date cooling degree days 1657 1346  
Moisture  
Dew Point 27 °F    
Average Humidity 53    
Maximum Humidity 70    
Minimum Humidity 36    
Precipitation  
Precipitation 0.00 in 0.06 in 0.92 in (1899)
Month to date precipitation 1.20 1.57  
Year to date precipitation 32.22 25.58  
Snow  
Snow 0.00 in 0.00 in 0.60 in (1957)
Month to date snowfall 0.0 0.1  
Year to date snowfall 32.3 13.8  
Since 1 July snowfall 0.0 0.1  
Snow Depth 0.00 in    
Sea Level Pressure  
Sea Level Pressure 30.38 in    
Wind  
Wind Speed 9 mph (North)    
Max Wind Speed 23 mph    
Max Gust Speed 33 mph    
Visibility 10 miles    
Events      
T = Trace of Precipitation, MM = Missing Value Source: NWS Daily Summary

Daily Weather History Graph

Daily Weather History Graph

Search for Another Location

Airport or City:

Astronomy

Oct. 24, 2019 Rise Set
Actual Time 7:49 AM CDT 6:39 PM CDT
Civil Twilight 7:22 AM CDT 7:06 PM CDT
Nautical Twilight 6:50 AM CDT 7:37 PM CDT
Astronomical Twilight 6:19 AM CDT 8:09 PM CDT
Moon 3:22 AM CDT (10/24) 5:06 PM CDT (10/24)
Length of Visible Light 11h 44m
Length of Day
10h 49m
Waning Crescent, 16% of the Moon is Illuminated
Oct 24
Waning Crescent
Oct 27
New
Nov 4
First Quarter
Nov 12
Full
Nov 19
Last Quarter

Hourly Weather History & Observations

Time (CDT) Temp. Windchill Dew Point Humidity Pressure Visibility Wind Dir Wind Speed Gust Speed Precip Events Conditions
12:55 AM 42.1 °F 32.8 °F 34.0 °F 73% 30.29 in 10.0 mi North 21.9 mph 32.2 mph N/A   Overcast
1:55 AM 42.1 °F 34.2 °F 32.0 °F 67% 30.30 in 10.0 mi North 16.1 mph 27.6 mph N/A   Overcast
2:55 AM 41.0 °F 31.9 °F 30.9 °F 67% 30.30 in 10.0 mi North 19.6 mph 33.4 mph N/A   Overcast
3:55 AM 39.9 °F 30.5 °F 28.9 °F 65% 30.32 in 10.0 mi North 19.6 mph 27.6 mph N/A   Overcast
4:05 AM 39.9 °F 32.9 °F 28.9 °F 65% 30.32 in 10.0 mi North 11.5 mph 23.0 mph N/A   Overcast
4:55 AM 39.9 °F 32.5 °F 28.9 °F 65% 30.34 in 10.0 mi North 12.7 mph - N/A   Scattered Clouds
5:55 AM 39.0 °F 32.3 °F 28.0 °F 65% 30.36 in 10.0 mi North 10.4 mph - N/A   Scattered Clouds
6:55 AM 39.0 °F 33.4 °F 27.0 °F 62% 30.39 in 10.0 mi North 8.1 mph - N/A   Clear
7:55 AM 37.9 °F 32.1 °F 25.0 °F 60% 30.41 in 10.0 mi North 8.1 mph - N/A   Scattered Clouds
8:55 AM 37.9 °F 30.9 °F 26.1 °F 62% 30.44 in 10.0 mi North 10.4 mph - N/A   Partly Cloudy
9:55 AM 41.0 °F 34.3 °F 26.1 °F 55% 30.46 in 10.0 mi North 11.5 mph 19.6 mph N/A   Clear
10:55 AM 44.1 °F 37.4 °F 25.0 °F 47% 30.46 in 10.0 mi North 13.8 mph - N/A   Clear
11:55 AM 44.1 °F 37.1 °F 25.0 °F 47% 30.46 in 10.0 mi NE 15.0 mph - N/A   Scattered Clouds
12:55 PM 46.0 °F 40.2 °F 24.1 °F 42% 30.44 in 10.0 mi North 12.7 mph 25.3 mph N/A   Overcast
1:55 PM 48.0 °F - 24.1 °F 39% 30.40 in 10.0 mi NNE 11.5 mph - N/A   Mostly Cloudy
2:55 PM 48.9 °F - 23.0 °F 36% 30.34 in 10.0 mi NNE 15.0 mph 24.2 mph N/A   Partly Cloudy
3:55 PM 48.9 °F - 23.0 °F 36% 30.36 in 10.0 mi NE 10.4 mph - N/A   Clear
4:55 PM 48.0 °F - 24.1 °F 39% 30.38 in 10.0 mi NE 11.5 mph - N/A   Clear
5:55 PM 46.9 °F - 24.1 °F 41% 30.39 in 10.0 mi NNE 9.2 mph - N/A   Clear
6:55 PM 45.0 °F 43.5 °F 25.0 °F 46% 30.40 in 10.0 mi North 3.5 mph - N/A   Clear
7:55 PM 43.0 °F - 25.0 °F 49% 30.42 in 10.0 mi Calm Calm - N/A   Clear
8:55 PM 41.0 °F - 26.1 °F 55% 30.41 in 10.0 mi Calm Calm - N/A   Clear
9:55 PM 39.0 °F 35.7 °F 28.0 °F 65% 30.41 in 10.0 mi North 4.6 mph - N/A   Clear
10:55 PM 37.0 °F 34.5 °F 27.0 °F 67% 30.41 in 10.0 mi NNW 3.5 mph - N/A   Clear
11:55 PM 37.0 °F - 26.1 °F 65% 30.40 in 10.0 mi Calm Calm - N/A   Clear